Cleveland, OH

9:31 PM EDT on June 25, 2017 (GMT -0400)
Cleveland-Hopkins International

Weather History for KCLE - July, 2013

Change the Weather History Date:

Wednesday, July 31, 2013

  Actual Average Record
Temperature  
Mean Temperature 72 °F 73 °F  
Max Temperature 80 °F 82 °F 97 °F (1955)
Min Temperature 63 °F 64 °F 51 °F (1891)
Degree Days  
Heating Degree Days 0 0  
Month to date heating degree days 3 0  
Since 1 June heating degree days 42 46  
Since 1 July heating degree days 3 4  
Cooling Degree Days 7 8  
Month to date cooling degree days 286 265  
Year to date cooling degree days 564 492  
Since 1 June cooling degree days 450 433  
Growing Degree Days 22 (Base 50)    
Moisture  
Dew Point 60 °F    
Average Humidity 69    
Maximum Humidity 84    
Minimum Humidity 54    
Precipitation  
Precipitation T in 0.12 in 1.54 in (1983)
Month to date precipitation 4.91 3.46  
Year to date precipitation 25.40 22.03  
Snow  
Snow 0.00 in 0.00 in - ()
Month to date snowfall 0.0 0.0  
Since 1 June snowfall 0.0 0.0  
Since 1 July snowfall 0.0 0.0  
Snow Depth 0.00 in    
Sea Level Pressure  
Sea Level Pressure 30.07 in    
Wind  
Wind Speed 9 mph (South)    
Max Wind Speed 15 mph    
Max Gust Speed 18 mph    
Visibility 10 miles    
Events      
T = Trace of Precipitation, MM = Missing Value Source: NWS Daily Summary

Daily Weather History Graph

Daily Weather History Graph

Search for Another Location

Airport or City:

Trip Planner

Search our weather history database for the weather conditions in past years. The results will help you decide how hot, cold, wet, or windy it might be!

Date:

Astronomy

Jul. 31, 2013 Rise Set
Actual Time 6:21 AM EDT 8:45 PM EDT
Civil Twilight 5:50 AM EDT 9:16 PM EDT
Nautical Twilight 5:11 AM EDT 9:55 PM EDT
Astronomical Twilight 4:28 AM EDT 10:37 PM EDT
Moon 1:16 AM EDT (7/31) 4:00 PM EDT (7/31)
Length of Visible Light 15h 26m
Length of Day
14h 23m
Waning Crescent, 32% of the Moon is Illuminated
Jul 31
Waning Crescent
Aug 6
New
Aug 14
First Quarter
Aug 20
Full
Aug 28
Last Quarter

Hourly Weather History & Observations

Time (EDT) Temp. Dew Point Humidity Pressure Visibility Wind Dir Wind Speed Gust Speed Precip Events Conditions
12:51 AM 64.9 °F 57.0 °F 75% 30.17 in 10.0 mi SE 4.6 mph - N/A   Mostly Cloudy
1:51 AM 64.0 °F 57.9 °F 80% 30.17 in 10.0 mi SSE 3.5 mph - N/A   Mostly Cloudy
3:51 AM 64.0 °F 57.9 °F 80% 30.14 in 10.0 mi SSE 3.5 mph - N/A   Mostly Cloudy
4:51 AM 64.0 °F 59.0 °F 84% 30.14 in 10.0 mi SSE 6.9 mph - N/A   Mostly Cloudy
5:51 AM 64.0 °F 59.0 °F 84% 30.13 in 10.0 mi SSE 6.9 mph - N/A   Mostly Cloudy
6:51 AM 64.9 °F 59.0 °F 81% 30.14 in 10.0 mi SSE 8.1 mph - N/A   Mostly Cloudy
7:51 AM 66.9 °F 59.0 °F 76% 30.13 in 10.0 mi South 5.8 mph - N/A   Mostly Cloudy
8:51 AM 71.1 °F 60.1 °F 68% 30.13 in 10.0 mi SSW 9.2 mph - N/A   Mostly Cloudy
9:51 AM 73.0 °F 60.1 °F 64% 30.12 in 10.0 mi SSW 6.9 mph - N/A   Mostly Cloudy
10:51 AM 75.0 °F 57.9 °F 55% 30.11 in 10.0 mi SSW 11.5 mph - N/A   Mostly Cloudy
11:51 AM 73.9 °F 61.0 °F 64% 30.10 in 10.0 mi South 10.4 mph - N/A   Mostly Cloudy
12:51 PM 75.9 °F 60.1 °F 58% 30.08 in 10.0 mi South 9.2 mph - N/A   Mostly Cloudy
1:51 PM 78.1 °F 61.0 °F 56% 30.07 in 10.0 mi South 10.4 mph 18.4 mph N/A   Mostly Cloudy
2:51 PM 78.1 °F 61.0 °F 56% 30.04 in 10.0 mi South 10.4 mph - N/A   Overcast
3:51 PM 78.1 °F 62.1 °F 58% 30.03 in 10.0 mi South 11.5 mph - N/A   Overcast
4:51 PM 78.1 °F 62.1 °F 58% 30.02 in 10.0 mi South 11.5 mph - N/A   Overcast
5:51 PM 78.1 °F 62.1 °F 58% 29.99 in 10.0 mi SSW 9.2 mph - N/A   Mostly Cloudy
6:51 PM 77.0 °F 60.1 °F 56% 29.98 in 10.0 mi South 12.7 mph - N/A   Mostly Cloudy
7:51 PM 75.0 °F 61.0 °F 62% 29.96 in 10.0 mi SSE 11.5 mph - N/A   Mostly Cloudy
8:51 PM 73.9 °F 61.0 °F 64% 29.96 in 10.0 mi South 8.1 mph - N/A   Mostly Cloudy
9:51 PM 73.0 °F 63.0 °F 71% 29.95 in 10.0 mi South 10.4 mph - N/A   Mostly Cloudy
10:51 PM 71.1 °F 63.0 °F 75% 29.95 in 10.0 mi South 10.4 mph - N/A   Overcast
11:51 PM 71.1 °F 63.0 °F 75% 29.93 in 10.0 mi South 9.2 mph - N/A   Overcast